{"data":{"norad_id":51634,"epoch":"2026-09-20T02:12:30.799296Z","epoch_age_seconds":61253,"freshness":"FRESH","line1":"1 51634U 22012N   26263.09202314 -.00001027  00000+0 -29775-2 0  9999","line2":"2 51634  87.8898  17.3854 0001839 106.5794 253.5535 13.10376552221770","mean_motion":13.10376552,"eccentricity":0.0001839,"inclination_deg":87.8898,"raan_deg":17.3854,"arg_perigee_deg":106.5794,"mean_anomaly_deg":253.5535,"bstar":-0.0029775,"rev_number":22177,"period_min":109.89207627397,"perigee_km":1220.3050988748,"apogee_km":1223.1003199199,"semimajor_km":7599.8397093973,"source":"CELESTRAK","updated_at":"2026-09-20T09:00:44.710124Z"}}